GFSSW_250_spd_135.txt.gz
Wind_Speed
18 15 13 8 4 2 3 7 11 15 18 21 23 24 27 31 33 25 19 16 17 16 14 11 9 9 8 6 8 6 13 9 10 14 16 16 17 19 20 23 27 28 26 22 19
21 18 15 11 7 4 1 3 6 11 15 18 20 22 23 27 30 31 26 20 17 15 15 14 13 11 8 7 8 9 7 9 12 15 13 16 18 20 21 23 25 26 26 25 22
24 20 17 14 11 8 4 1 3 6 10 14 19 19 21 22 25 28 30 25 21 19 17 16 14 14 16 14 13 14 14 13 12 14 14 14 16 17 18 18 19 22 25 25 23
28 24 20 17 14 12 9 6 4 4 6 9 14 17 18 21 20 23 26 27 25 21 20 20 19 17 15 16 18 19 18 17 18 16 16 17 16 16 15 15 15 18 22 23 23
32 28 24 22 18 15 13 11 8 7 5 6 10 14 16 18 20 21 21 23 26 26 22 20 19 18 16 17 18 19 20 20 18 18 16 16 18 17 15 13 12 14 15 18 20
36 32 29 26 23 19 17 15 12 10 8 6 8 10 14 15 18 21 19 20 24 26 26 22 21 21 22 22 22 21 22 23 22 19 17 17 16 17 16 14 11 11 11 12 14
39 35 33 30 27 23 21 19 16 13 12 10 8 10 11 14 16 19 22 17 20 25 28 29 26 24 25 25 24 24 25 25 22 20 18 16 18 16 19 17 15 10 12 10 8
43 40 37 34 31 27 25 23 20 18 15 14 12 10 11 13 16 18 20 19 17 20 24 27 29 26 25 26 26 25 26 25 22 19 21 17 17 15 18 19 18 16 12 13 12
47 44 41 38 35 32 29 27 24 22 19 16 15 15 13 13 15 18 19 21 18 18 20 25 28 31 29 28 27 28 27 26 23 22 22 21 16 13 14 18 20 19 17 16 12
51 49 46 43 40 37 34 31 28 26 23 21 18 17 17 15 17 18 20 21 21 20 21 23 29 33 35 31 28 27 28 27 24 22 24 24 20 16 14 14 19 19 17 17 16
56 53 50 47 43 41 38 35 32 30 28 25 24 21 20 19 20 19 21 21 23 22 23 24 27 33 37 36 30 25 26 30 27 25 24 22 21 19 18 17 16 18 16 16 19
60 58 54 51 48 45 41 39 37 34 32 30 28 26 25 23 24 23 22 23 24 25 25 27 28 33 37 39 34 28 28 30 29 26 24 21 17 19 19 21 18 17 16 18 21
62 60 57 56 52 49 46 44 42 39 37 34 32 30 30 27 27 27 27 25 26 28 29 28 29 33 36 40 38 32 30 32 31 27 25 20 17 18 19 20 18 17 18 19 19
64 62 61 59 57 54 51 48 46 44 41 39 37 35 33 33 31 31 30 28 29 31 31 31 32 34 38 41 42 36 33 34 34 31 28 18 14 15 18 20 18 19 19 17 17
64 62 63 62 60 58 55 53 51 49 46 43 42 40 36 37 33 36 33 32 31 32 34 33 35 36 38 40 41 38 34 35 36 33 30 20 12 11 14 18 19 19 17 16 17
69 65 63 63 62 61 57 57 54 52 50 47 44 42 41 39 36 37 36 35 33 35 36 36 36 37 38 42 42 38 35 34 33 32 29 21 14 11 12 15 16 17 17 18 19
74 71 67 67 64 62 59 59 57 55 55 50 47 45 43 42 42 40 40 38 36 38 38 38 38 39 39 44 43 39 35 33 34 34 28 20 17 13 10 12 14 15 17 16 19
78 77 75 71 68 66 64 63 60 62 57 51 49 48 48 47 47 43 43 41 40 41 42 40 40 41 44 45 44 41 39 35 35 33 29 21 20 19 14 11 14 18 22 24 25
82 81 81 75 74 70 67 63 65 65 60 58 55 53 49 49 48 46 45 45 45 43 44 43 43 43 46 47 45 43 43 40 37 34 31 27 25 24 21 17 15 17 20 25 31
86 86 85 77 78 76 71 67 71 69 64 61 58 58 57 55 53 53 50 49 47 46 45 47 47 47 48 49 49 48 47 45 42 37 34 32 31 29 27 24 23 24 26 29 34
91 89 86 83 83 79 74 70 76 74 70 66 63 61 60 58 56 54 52 52 49 46 48 50 51 50 51 49 50 50 50 48 45 42 39 37 34 31 30 29 28 28 29 31 34
98 95 92 87 85 80 76 77 81 79 74 70 67 65 63 62 61 56 53 54 50 51 51 52 58 55 53 52 54 53 52 49 48 46 43 41 41 37 33 32 31 31 30 32 34
103 102 97 93 87 83 83 83 85 83 77 75 71 68 65 65 63 57 56 56 55 54 54 54 54 61 61 59 58 56 53 51 49 49 49 47 44 44 42 40 38 37 36 36 38
103 103 101 97 94 91 87 84 84 86 83 78 75 71 68 67 67 64 62 58 57 58 56 56 57 61 66 66 64 61 57 53 51 49 48 48 47 48 47 46 44 44 44 45 45
108 104 100 98 99 96 93 91 89 90 85 77 75 73 72 72 72 68 66 65 64 62 61 62 62 64 66 69 68 67 62 57 54 52 48 47 50 51 51 51 51 51 52 52 52
116 110 103 100 99 98 98 96 93 94 89 83 80 80 77 75 73 72 70 69 69 69 68 66 67 68 67 70 69 67 65 63 61 56 54 53 50 53 54 53 55 56 58 59 61
116 116 111 106 101 97 96 96 98 99 98 91 86 82 80 82 81 78 75 75 74 73 71 70 70 70 69 69 65 63 65 63 65 62 58 58 59 57 57 57 56 56 58 61 63

GFSSW_250_spd_138.txt.gz
Wind_Speed
19 16 13 9 5 2 2 7 11 15 19 21 22 25 29 31 31 26 20 18 18 17 15 14 11 9 10 9 10 14 20 15 14 17 19 20 17 17 17 17 20 20 24 25 22
22 19 17 13 9 6 2 2 6 9 13 19 19 20 23 26 28 31 27 23 21 20 18 17 16 15 13 15 16 16 16 15 13 15 17 18 18 17 16 16 17 18 20 23 23
26 23 20 16 13 10 6 3 2 5 8 12 17 17 18 21 23 25 28 28 24 22 21 20 20 20 20 21 20 19 18 16 16 16 16 16 17 17 18 16 16 17 19 23 25
30 26 23 19 17 13 11 7 3 1 4 6 12 15 15 17 20 19 22 24 26 25 22 21 20 19 20 20 21 22 23 21 18 18 17 17 16 15 15 15 14 15 16 18 22
34 30 27 23 20 17 14 11 8 6 3 2 6 10 13 14 15 19 17 20 22 25 27 24 22 22 23 23 21 22 23 23 20 18 19 18 17 16 14 15 12 11 13 14 15
38 35 31 27 24 21 19 15 12 9 7 4 4 6 8 11 13 14 17 16 18 22 26 27 28 25 23 23 20 20 21 21 21 20 20 20 19 18 15 12 13 13 10 11 12
42 39 35 32 29 26 23 20 16 13 11 9 7 6 7 7 11 14 14 15 15 16 19 23 25 27 30 26 23 21 21 22 22 21 20 20 19 20 18 16 12 13 14 9 8
45 42 39 37 34 30 27 24 21 18 15 12 11 10 9 9 10 11 15 15 16 16 19 20 24 28 32 32 26 23 22 23 24 22 23 21 20 20 20 20 16 14 12 14 10
49 46 43 40 37 35 32 29 25 22 19 17 14 13 13 13 10 11 13 17 16 18 18 20 21 26 31 34 30 25 22 22 22 24 25 23 19 20 21 21 18 17 15 14 14
52 50 47 44 42 39 37 34 30 27 24 22 18 17 16 16 14 13 13 15 18 18 21 21 23 25 27 32 32 29 25 25 23 25 24 23 21 18 20 21 20 19 19 19 17
57 54 51 49 47 44 41 39 37 34 30 26 23 21 20 18 19 16 16 16 19 20 22 24 23 25 27 30 35 34 25 24 25 26 27 25 23 19 18 19 21 22 22 22 19
61 58 55 52 50 48 47 45 42 39 36 32 28 26 25 23 22 21 19 19 20 21 22 26 26 26 29 29 33 36 28 26 27 30 28 27 24 20 19 17 19 22 23 24 21
66 63 60 57 54 52 52 50 47 43 40 37 33 31 28 26 25 23 23 21 22 23 23 25 29 28 29 29 32 37 32 28 28 28 30 26 24 21 22 18 18 20 23 24 22
70 68 65 62 59 57 55 53 51 47 44 42 39 33 33 30 29 27 26 24 25 25 25 26 30 30 29 31 31 36 33 30 27 28 30 27 21 19 18 17 19 20 21 22 21
70 70 68 66 64 62 60 57 55 52 49 45 42 41 37 34 33 32 31 28 29 27 27 28 30 32 30 31 31 37 35 33 30 29 28 28 23 22 21 17 18 18 17 16 16
72 71 71 70 67 66 63 61 58 56 53 50 48 45 40 39 36 35 33 31 31 29 30 31 32 34 33 33 32 36 36 34 32 30 28 27 24 22 22 23 21 22 17 16 15
76 75 73 72 70 71 67 65 63 58 58 55 53 50 45 42 40 40 37 36 35 33 33 34 34 37 36 33 34 35 38 36 33 31 31 26 26 25 25 23 24 25 25 23 22
82 79 78 76 74 73 68 68 63 65 62 58 55 53 50 46 45 42 41 40 40 37 36 36 36 40 38 35 36 37 40 39 35 33 31 28 26 26 26 23 20 21 24 27 28
87 86 85 77 77 76 70 67 66 68 63 60 56 54 53 51 49 45 43 43 41 40 38 40 40 42 41 37 38 39 42 42 38 34 32 31 27 27 28 27 26 25 25 29 31
91 90 91 84 84 81 75 69 71 71 67 63 59 58 58 55 50 48 47 47 44 44 43 43 44 44 43 41 41 41 45 45 42 39 36 35 33 30 29 30 30 30 30 32 34
97 94 93 89 88 85 77 75 79 77 71 67 63 60 60 56 55 52 49 51 50 48 47 47 47 47 47 45 44 46 49 48 47 45 43 40 37 35 34 33 33 35 35 36 38
102 100 95 94 91 86 81 82 83 82 77 73 69 65 63 59 57 56 55 56 54 52 51 50 49 51 50 49 49 51 51 52 51 50 49 45 43 38 38 39 39 38 38 38 40
107 107 102 98 92 89 86 86 88 87 81 77 73 70 67 63 61 60 60 59 57 55 52 53 53 54 53 54 54 54 53 53 53 54 54 49 47 45 43 44 44 43 43 43 43
110 108 107 102 97 93 91 90 89 88 83 79 76 73 70 66 63 63 63 62 60 58 57 58 57 57 59 58 59 58 57 55 55 57 58 54 51 51 50 49 49 49 49 49 48
118 113 107 105 103 99 95 93 90 88 85 82 79 75 71 71 69 67 65 63 63 62 62 61 60 59 59 64 66 65 61 58 59 59 57 55 53 51 52 53 55 57 57 55 54
120 119 114 110 104 103 102 95 93 92 90 87 81 79 76 73 71 69 70 68 66 65 65 64 62 62 64 66 70 72 67 65 62 58 57 56 56 55 54 57 57 58 57 58 58
111 120 121 115 110 104 102 101 102 97 93 92 88 85 80 77 74 72 73 71 69 68 69 69 68 69 70 69 71 72 72 68 65 65 63 63 62 63 63 63 62 60 60 58 59

GFSSW_250_spd_144.txt.gz
Wind_Speed
19 16 13 10 7 7 8 12 17 17 18 23 27 27 28 26 24 22 22 21 20 20 19 18 17 17 18 18 19 20 19 20 19 17 15 15 13 12 10 7 5 8 8 9 6
23 19 17 13 10 7 7 8 11 16 16 17 19 23 25 26 27 26 24 22 22 22 21 21 21 22 21 20 20 21 21 20 20 19 17 16 16 15 12 10 8 6 7 11 12
27 24 20 18 14 11 9 8 7 8 12 15 15 17 18 21 23 25 26 27 27 27 26 26 27 24 22 21 21 21 22 21 21 19 18 18 17 16 14 12 9 8 7 9 12
32 28 25 22 19 14 12 10 8 7 6 9 12 13 14 16 17 19 21 23 25 25 25 27 29 27 24 23 21 21 21 20 19 19 19 18 18 17 16 13 11 8 7 5 7
37 33 30 26 23 19 16 13 11 9 8 4 6 9 13 14 14 14 15 18 19 20 22 24 26 29 28 24 21 21 21 21 21 20 19 19 18 17 16 14 13 10 6 4 3
41 38 34 30 27 24 20 17 14 11 10 9 5 4 7 10 13 14 13 14 15 17 18 20 22 25 26 28 27 24 23 24 23 22 21 19 18 17 16 13 13 12 10 7 4
46 43 39 36 32 28 25 22 19 15 12 12 9 7 4 4 7 11 12 12 14 14 16 18 20 23 26 29 32 29 25 24 24 25 23 21 18 15 16 16 12 12 11 11 9
50 48 45 41 37 33 29 27 24 20 16 14 12 10 9 5 2 4 7 10 10 14 16 17 19 22 23 26 29 30 26 23 24 25 26 23 19 16 14 14 15 13 13 12 12
55 52 50 46 42 39 35 32 29 25 21 18 15 13 11 9 7 3 2 4 7 10 12 15 17 17 21 21 25 29 29 28 24 24 26 26 21 17 14 12 12 14 13 13 13
59 56 54 51 48 44 41 37 34 30 27 23 20 17 14 12 10 7 6 4 4 6 8 10 14 17 17 19 20 25 30 31 30 28 28 29 24 23 22 18 14 13 14 14 14
63 61 58 55 53 49 46 43 40 36 31 28 24 22 19 16 14 12 10 9 8 7 8 9 9 13 16 18 19 21 26 30 32 29 28 28 27 22 23 24 21 16 12 11 12
66 64 62 59 57 54 52 48 44 41 37 32 29 26 24 21 18 17 15 13 11 10 9 11 10 12 14 18 21 21 23 26 30 31 29 27 26 26 23 22 23 22 20 16 14
71 67 66 64 61 59 57 54 50 46 43 39 35 31 29 26 23 21 20 20 16 14 13 13 13 13 16 16 19 23 23 25 27 30 30 29 25 25 25 24 22 23 23 22 19
77 73 69 68 66 64 61 58 54 51 48 45 41 36 34 30 28 26 25 24 22 20 17 16 16 15 16 17 19 22 25 25 28 29 32 29 29 26 24 23 22 20 21 21 21
79 79 75 71 70 68 66 62 59 57 54 49 44 42 38 36 34 32 29 28 26 25 21 21 20 17 18 19 19 22 26 26 27 30 32 33 32 29 26 23 21 21 21 20 20
82 81 81 78 73 72 70 67 64 62 57 53 49 46 44 42 39 37 34 31 30 29 25 27 23 22 20 21 20 22 25 27 27 29 32 34 35 36 31 28 25 23 22 21 21
87 84 83 83 80 76 74 71 69 63 59 56 53 52 50 46 43 40 39 36 34 32 31 31 27 26 23 24 22 22 24 27 27 28 30 33 35 37 38 32 28 26 24 22 19
92 90 88 85 84 83 79 75 70 65 66 60 58 56 51 49 45 43 42 41 40 39 36 34 32 29 25 26 26 24 26 28 28 29 30 31 34 37 40 39 37 33 28 25 23
99 95 94 90 88 87 85 79 70 71 70 66 63 60 57 53 50 49 47 47 45 43 40 40 37 33 30 30 30 29 29 31 30 31 32 33 34 35 41 43 41 40 37 34 31
103 101 98 96 94 90 86 78 78 78 77 73 69 65 62 58 55 54 52 51 49 48 45 42 40 37 36 34 34 32 32 33 32 32 34 35 35 37 41 44 45 45 44 40 38
107 106 104 102 99 96 83 80 82 84 81 78 75 70 67 63 59 58 55 53 52 51 47 45 44 42 40 38 38 37 37 36 35 34 36 37 37 39 42 45 46 46 44 44 42
101 109 109 107 104 96 92 87 86 88 85 82 78 75 71 67 65 61 58 58 55 54 50 49 47 44 43 44 43 40 41 40 39 38 37 39 41 43 45 47 48 48 47 48 46
84 106 112 113 107 101 97 95 92 93 88 83 80 78 74 71 69 66 64 62 59 57 53 51 49 49 47 47 48 45 44 44 44 41 41 43 44 47 49 51 50 50 52 52 52
83 94 111 112 111 106 102 99 97 97 93 88 85 79 75 73 70 69 68 65 62 62 58 58 55 52 52 54 50 49 48 49 47 45 45 45 48 49 54 56 55 53 53 54 54
94 91 97 110 112 112 108 103 102 98 95 93 88 83 79 78 74 72 71 68 67 64 62 60 57 56 57 56 54 52 51 52 51 50 48 49 51 52 55 58 60 60 59 58 56
103 96 95 100 110 113 111 108 104 103 101 93 90 90 87 81 79 78 77 76 73 72 69 67 64 62 60 60 58 55 55 55 55 54 54 53 53 54 55 57 62 63 65 64 61
109 106 99 98 101 112 112 112 111 108 104 99 95 93 88 85 85 82 80 79 76 75 73 71 66 66 65 62 61 58 57 59 59 59 60 59 57 58 58 62 64 64 66 66 64

GFSSW_250_spd_147.txt.gz
Wind_Speed
19 16 12 9 5 5 11 13 15 17 21 24 25 26 25 22 21 21 20 20 19 17 16 17 15 13 12 12 13 14 15 15 13 11 10 10 8 7 4 2 1 3 3 2 3
22 20 16 12 9 6 6 11 13 13 15 18 21 23 25 25 24 24 24 24 23 22 21 20 19 19 18 16 17 18 20 19 17 16 14 12 11 9 6 5 3 2 3 4 5
27 24 21 17 13 11 8 6 9 11 11 13 15 16 19 21 23 24 23 23 24 25 25 25 25 26 25 22 21 21 23 22 21 20 16 12 10 8 8 6 5 3 1 2 5
31 29 26 23 19 15 12 9 6 7 7 10 11 12 14 16 17 19 19 19 20 22 24 25 27 29 30 28 25 24 25 24 24 23 21 18 14 10 9 7 6 5 3 1 3
37 34 31 27 25 20 17 14 10 7 5 5 8 11 11 12 12 13 14 15 16 18 21 22 25 28 29 30 27 24 24 26 25 25 22 19 16 13 11 8 6 5 3 2 3
42 39 36 33 29 26 21 19 15 12 9 6 4 6 9 11 12 12 11 12 13 15 17 20 21 23 27 30 28 27 26 25 25 26 25 20 18 16 13 10 7 5 3 2 2
47 44 41 38 35 31 28 23 21 18 14 12 8 4 3 6 8 10 9 10 12 13 15 16 18 19 23 26 31 31 30 28 27 26 27 24 20 17 15 14 11 9 7 5 3
52 49 46 43 40 36 33 29 25 22 19 16 13 10 7 4 4 5 6 8 8 10 13 15 16 17 21 23 27 30 32 30 29 27 26 26 23 22 18 14 13 11 9 6 6
57 54 51 48 45 42 38 34 30 27 23 20 18 16 13 9 8 4 2 2 4 6 8 10 13 16 19 21 24 25 28 32 30 28 27 27 24 21 21 19 16 13 11 9 7
60 59 56 53 50 47 43 39 35 32 29 25 22 19 17 14 12 10 7 4 3 4 5 8 11 15 16 19 22 23 24 27 30 31 30 26 25 23 20 19 20 19 16 14 10
65 62 61 58 56 53 49 45 41 36 34 30 27 24 21 19 17 14 13 10 7 7 8 8 10 11 15 16 18 21 22 23 27 31 30 28 26 24 24 22 19 18 18 17 15
69 67 64 63 60 58 55 51 47 44 40 36 32 29 26 24 21 18 17 14 11 10 10 11 11 13 14 16 16 19 21 22 22 27 31 31 27 26 24 24 23 22 18 18 18
74 72 69 67 65 62 60 57 53 49 46 42 38 34 30 28 25 22 20 18 16 14 14 13 13 14 16 17 16 18 19 21 22 22 26 30 30 28 24 23 24 24 23 20 16
79 77 74 70 69 67 64 61 58 55 52 48 44 40 36 32 29 27 25 23 21 19 19 18 16 16 16 18 19 19 19 20 21 22 23 25 28 28 26 25 23 23 24 23 21
84 82 79 76 74 71 70 66 63 62 57 54 48 43 41 38 36 33 30 27 26 24 23 22 22 19 18 19 22 22 23 22 22 22 22 24 27 28 27 24 23 23 22 23 23
89 86 84 81 77 76 74 72 68 67 61 55 53 51 46 44 43 37 36 33 31 29 26 25 25 24 21 21 24 25 23 24 24 23 23 23 25 27 28 24 19 20 21 22 22
93 91 89 87 83 81 78 77 75 69 65 58 59 56 53 50 48 44 40 39 36 32 31 29 28 27 25 25 25 27 25 25 26 26 26 26 26 26 29 29 27 22 19 18 19
98 96 94 91 89 87 84 80 75 71 68 65 63 61 58 56 52 49 45 42 39 40 38 36 32 32 29 28 28 28 27 26 27 27 28 29 28 29 29 31 31 32 26 22 20
104 101 100 97 94 92 90 83 72 74 74 71 70 66 64 61 56 54 49 48 46 45 40 39 38 36 34 31 31 32 30 29 30 31 30 31 32 30 32 32 33 36 38 35 30
109 106 106 102 101 98 92 82 81 80 78 76 73 70 67 64 61 56 53 52 50 49 45 41 43 39 39 36 35 35 33 32 32 34 34 32 34 33 36 35 36 38 39 42 39
94 111 109 109 106 102 91 84 86 86 84 80 76 76 72 69 64 60 58 57 54 52 50 45 47 43 41 39 39 38 36 37 36 36 38 38 36 36 37 39 39 40 41 44 47
72 98 111 114 109 103 97 92 92 91 88 86 81 78 75 73 67 64 61 60 59 58 53 49 51 47 44 43 42 42 39 40 38 38 40 42 40 35 40 40 43 43 42 46 48
81 77 95 114 110 105 104 101 99 94 90 91 86 83 80 76 73 69 67 67 63 62 56 55 52 53 47 45 50 44 43 40 43 44 43 45 44 39 42 42 45 46 46 48 51
92 88 79 90 109 115 108 107 103 99 96 93 89 89 86 81 77 74 73 72 68 64 63 60 56 56 54 53 52 45 46 47 46 45 49 47 48 45 44 46 47 47 49 51 55
101 98 94 80 89 110 115 110 108 104 100 99 95 91 88 84 83 80 78 79 71 71 66 65 61 60 61 58 54 53 49 47 49 50 50 54 51 49 47 50 51 53 53 54 57
112 109 101 91 81 86 109 114 109 108 108 102 98 94 92 87 86 83 83 84 75 74 72 70 65 65 64 65 58 58 52 54 53 54 54 55 56 51 52 51 54 57 57 58 61
119 113 107 104 93 87 89 105 110 111 112 108 103 101 96 91 90 88 89 85 76 77 76 73 71 68 64 69 66 60 60 58 58 57 58 59 60 53 55 55 56 58 59 61 64